TimeEDT,TemperatureF,Dew PointF,Humidity,Sea Level PressureIn,VisibilityMPH,Wind Direction,Wind SpeedMPH,Gust SpeedMPH,PrecipitationIn,Events,Conditions,WindDirDegrees,DateUTC
12:51 AM,64.0,60.1,87,30.10,10.0,North,3.5,-,N/A,,Overcast,350,2013-10-06 04:51:00
1:51 AM,63.0,60.1,90,30.10,10.0,Calm,Calm,-,N/A,,Overcast,0,2013-10-06 05:51:00
2:51 AM,63.0,60.1,90,30.09,10.0,Calm,Calm,-,N/A,,Overcast,0,2013-10-06 06:51:00
3:51 AM,64.0,60.1,87,30.08,10.0,SSE,5.8,-,N/A,,Overcast,160,2013-10-06 07:51:00
4:51 AM,63.0,61.0,93,30.09,7.0,ESE,3.5,-,0.03,Rain,Rain,120,2013-10-06 08:51:00
5:51 AM,63.0,61.0,93,30.10,7.0,ESE,3.5,-,0.08,Rain,Light Rain,110,2013-10-06 09:51:00
6:35 AM,62.6,60.8,94,30.11,5.0,Calm,Calm,-,0.12,Rain,Light Rain,0,2013-10-06 10:35:00
6:51 AM,62.1,61.0,96,30.12,2.0,East,4.6,-,0.22,Rain,Heavy Rain,90,2013-10-06 10:51:00
6:59 AM,62.6,60.8,94,30.11,3.0,East,5.8,-,0.04,Rain,Light Rain,100,2013-10-06 10:59:00
7:35 AM,62.6,60.8,94,30.12,4.0,East,6.9,-,0.05,Rain,Light Rain,90,2013-10-06 11:35:00
7:51 AM,61.0,57.9,90,30.15,2.0,East,10.4,-,0.06,Rain,Rain,80,2013-10-06 11:51:00
7:56 AM,60.8,57.2,88,30.15,2.0,East,9.2,-,0.03,Rain,Rain,80,2013-10-06 11:56:00
8:22 AM,59.0,55.4,88,30.15,3.0,East,9.2,-,0.06,Rain,Light Rain,100,2013-10-06 12:22:00
8:51 AM,59.0,55.9,90,30.16,4.0,ESE,5.8,-,0.08,Rain,Light Rain,110,2013-10-06 12:51:00
9:31 AM,59.0,57.2,94,30.17,2.5,Calm,Calm,-,0.02,Rain,Heavy Rain,0,2013-10-06 13:31:00
9:45 AM,59.0,57.2,94,30.17,3.0,NNE,3.5,-,0.06,Rain,Light Rain,30,2013-10-06 13:45:00
9:51 AM,59.0,57.0,93,30.17,3.0,NE,4.6,-,0.06,Rain,Light Rain,40,2013-10-06 13:51:00
10:51 AM,59.0,57.0,93,30.18,3.0,Calm,Calm,-,0.03,Rain,Rain,0,2013-10-06 14:51:00
11:05 AM,59.0,57.2,94,30.18,2.5,ENE,3.5,-,0.03,Rain,Rain,60,2013-10-06 15:05:00
11:22 AM,59.0,57.2,94,30.17,3.0,East,3.5,-,0.05,Rain,Light Rain,90,2013-10-06 15:22:00
11:51 AM,59.0,57.0,93,30.18,3.0,Calm,Calm,-,0.10,Rain,Rain,0,2013-10-06 15:51:00
12:10 PM,59.0,57.2,94,30.18,2.5,NNE,3.5,-,0.04,Rain,Rain,30,2013-10-06 16:10:00
12:51 PM,57.9,57.0,97,30.17,2.0,North,3.5,-,0.18,Rain,Heavy Rain,350,2013-10-06 16:51:00
1:15 PM,57.2,57.2,100,30.16,2.0,NE,4.6,-,0.17,Rain,Heavy Rain,40,2013-10-06 17:15:00
1:51 PM,59.0,57.0,93,30.15,2.0,NE,6.9,-,0.25,Rain,Light Rain,50,2013-10-06 17:51:00
2:11 PM,59.0,57.2,94,30.15,4.0,NE,6.9,-,0.00,Rain,Light Rain,50,2013-10-06 18:11:00
2:51 PM,59.0,57.0,93,30.15,6.0,NE,8.1,-,0.00,,Overcast,40,2013-10-06 18:51:00
3:06 PM,59.0,57.2,94,30.15,2.5,NE,6.9,-,0.00,,Light Drizzle,40,2013-10-06 19:06:00
3:13 PM,59.0,57.2,94,30.15,1.5,NE,6.9,-,0.00,,Light Drizzle,40,2013-10-06 19:13:00
3:51 PM,57.9,57.0,97,30.14,1.5,NE,6.9,-,0.01,,Light Drizzle,40,2013-10-06 19:51:00
4:40 PM,57.2,55.4,94,30.14,1.5,NNE,8.1,-,0.01,,Light Drizzle,20,2013-10-06 20:40:00
4:51 PM,57.0,55.9,96,30.14,1.2,North,5.8,-,0.01,,Light Drizzle,10,2013-10-06 20:51:00
5:51 PM,57.0,55.0,93,30.14,1.5,North,5.8,-,0.01,,Light Drizzle,10,2013-10-06 21:51:00
6:51 PM,55.9,55.0,97,30.14,1.5,NNE,6.9,-,0.01,,Light Drizzle,20,2013-10-06 22:51:00
7:51 PM,55.9,55.0,97,30.14,1.5,NNE,4.6,-,0.01,,Light Drizzle,20,2013-10-06 23:51:00
8:51 PM,57.0,55.9,96,30.13,1.5,NNE,4.6,-,0.01,,Light Drizzle,20,2013-10-07 00:51:00
9:51 PM,57.0,55.9,96,30.13,1.5,NNE,4.6,-,0.01,,Light Drizzle,20,2013-10-07 01:51:00
10:51 PM,57.0,55.9,96,30.11,1.5,North,4.6,-,0.01,Rain,Light Rain,10,2013-10-07 02:51:00
11:51 PM,57.0,55.9,96,30.10,1.5,North,4.6,-,0.01,,Overcast,10,2013-10-07 03:51:00